Regional Weather Roundup
Issued by NWS

Home | Current Version | Previous Version | Text Only | Print | Product List | Glossary On
Versions: 1 2 3 4 5 6 7 8 9 10 11 12 13 14 15 16 17 18 19 20 21 22 23 24 25 26 27 28 29 30 31 32 33 34 35 36 37 38 39 40 41 42 43 44 45 46 47 48 49 50
000
ASUS44 KBMX 182210
RWRAL

ALABAMA REGIONAL WEATHER ROUNDUP
NATIONAL WEATHER SERVICE BIRMINGHAM AL
400 PM CST MON DEC 18 2017

NOTE: "FAIR" INDICATES FEW OR NO CLOUDS BELOW 12,000 FEET
WITH NO SIGNIFICANT WEATHER AND/OR OBSTRUCTIONS TO VISIBILITY.

THE REMARK "TC" DENOTES TEMPERATURE IN DEGREES CELSIUS.

ALZ001>011-014-016>018-020-182300-
NORTH ALABAMA

CITY           SKY/WX    TMP DP  RH WIND       PRES   REMARKS
MUSCLE SHOALS  CLEAR     59  49  69 W3        30.16S
HUNTSVILLE     PTCLDY    60  52  74 CALM      30.15F
DECATUR        CLEAR     60  51  72 SW5       30.16S
HALEYVILLE     FAIR      57  52  83 SW6       30.19S
GADSDEN        CLEAR     57  54  89 SE7       30.18S
$$

ALZ012-013-022-023-030>036-040>044-182300-
WEST CENTRAL ALABAMA

CITY           SKY/WX    TMP DP  RH WIND       PRES   REMARKS
TUSCALOOSA     PTCLDY    59  56  89 CALM      30.18S
DEMOPOLIS        N/A     58  56  95 CALM      30.18F
$$

ALZ015-024>026-033>036-041>044-182300-
CENTRAL ALABAMA

CITY           SKY/WX    TMP DP  RH WIND       PRES   REMARKS
BIRMINGHAM     MOCLDY    59  53  80 S6        30.19F
MONTGOMERY     CLOUDY    61  56  83 NW3       30.19S HAZE
SHELBY CO ARPT CLOUDY    57  55  93 CALM      30.18F
MAXWELL AFB    CLOUDY    61  58  92 CALM      30.18S
GREENVILLE     CLOUDY    62  59  90 CALM      30.18R FOG
SELMA          CLOUDY    59  55  88 SW3       30.20R
PRATTVILLE     CLOUDY    59  58  96 CALM      30.19R
BESSEMER       CLOUDY    57  55  93 S5        30.18F
TALLADEGA      MOCLDY    57  54  87 SW3       30.19S
PELL CITY      PTCLDY    57  55  94 SW6       30.19S
MARION         CLOUDY    58  58  98 CALM      30.18S
SYLACAUGA      CLOUDY    58  58 100 CALM      30.19S
$$

ALZ019-021-028-029-037-038-045>048-182300-
EAST CENTRAL ALABAMA

CITY           SKY/WX    TMP DP  RH WIND       PRES   REMARKS
ANNISTON       CLOUDY    57  53  86 SW6       30.18S
ALEXANDER CITY CLOUDY    60  56  89 W3        30.19S
AUBURN         CLOUDY    62  56  80 NW5       30.20R
$$

ALZ051>064-182300-
SOUTHWEST ALABAMA

CITY           SKY/WX    TMP DP  RH WIND       PRES   REMARKS
MOBILE         CLOUDY    68  66  93 N6        30.18R FOG
BROOKLEY FIELD CLOUDY    69  67  93 N7        30.18R
EVERGREEN      CLOUDY    64  61  90 CALM      30.19R
$$

ALZ049-050-065>069-182300-
SOUTHEAST ALABAMA

CITY           SKY/WX    TMP DP  RH WIND       PRES   REMARKS
DOTHAN         CLOUDY    68  67  96 N6        30.22R FOG
OZARK          DRIZZLE   66  64  94 N7        30.18R FOG
TROY           MOCLDY    63  61  93 CALM      30.19F
EUFAULA        CLOUDY    67  63  87 CALM      30.17R
$$



USA.gov is the U.S. government's official web portal to all federal, state and local government web resources and services.